Location: Nians�bougou
(13.2321°N, 4.9818°W)
Time: 14:25:46
(UTC+00:00)

Aureole 1 Rocket - Pass Details

Date: 18 February 2020
Orbit: 378 x 1381 km, 73.9° (Epoch: 29 March)

Event Time Altitude Azimuth Distance (km) Brightness Sun altitude
Exits shadow 04:25:56 50° 158° (SSE) 1,271 4.6 -33.5°
Maximum altitude 04:27:35 66° 100° (E) 1,142 4.4 -33.1°
Drops below altitude 10° 04:35:09 10° 20° (NNE) 3,208 6.8 -31.3°
Sets 04:38:12 0° 18° (NNE) 4,276 7.5 -30.5°
